Flight Track Log - Related Links

Times and Time Zones

All times are in EDT time to prevent confusion due to time zone crossing. See the UAL3732 flight status page for this flight to view local times or setup timezone preferences in your user account.

Time Position Orientation Groundspeed Altitude Reporting Facility
EDT Latitude Longitude Course Direction KTS MPH feet Rate Location/Type
17:37 44.5147 -73.2581 255° West 207 238 4,600  Level Boston Center
17:38 44.5036 -73.3336 258° West 207 238 6,300 2,269 Climbing Boston Center
17:39 44.4005 -73.5423 253° West  Level FlightAware Approximate
17:39 44.4842 -73.4353 255° West 246 283 9,100  Level Boston Center
17:40 44.3728 -73.6713 253° West  Level FlightAware Approximate
17:40 44.4644 -73.5339 254° West 262 302 11,300  Level Boston Center
17:41 44.3521 -73.8026 259° West  Level FlightAware Approximate
17:41 44.4425 -73.6467 255° West 302 348 13,300  Level Boston Center
17:42 44.3331 -73.9345 255° West  Level FlightAware Approximate
17:42 44.4181 -73.7828 256° West 321 369 15,800  Level Boston Center
17:43 44.3085 -74.0645 255° West  Level FlightAware Approximate
17:43 44.3936 -73.9072 255° West 326 375 18,000  Level Boston Center
17:44 44.3692 -74.0314 255° West 331 381 19,300 1,400 Climbing Boston Center
17:45 44.3464 -74.1586 256° West 336 387 20,800 1,650 Climbing Boston Center
17:46 44.3172 -74.2914 253° West 341 392 22,600 1,650 Climbing Boston Center
17:47 44.2922 -74.4239 255° West 352 405 24,100 1,450 Climbing Boston Center
17:48 44.2647 -74.5592 254° West 357 411 25,500 1,200 Climbing Boston Center
17:49 44.2369 -74.7003 255° West 362 417 26,500 1,100 Climbing Boston Center
17:50 44.2092 -74.8383 254° West 367 422 27,700 1,200 Climbing Boston Center
17:51 44.1811 -74.9792 255° West 372 428 28,900 1,200 Climbing Boston Center
17:52 44.1531 -75.1167 254° West 372 428 30,100 1,136 Climbing Boston Center
17:53 44.1247 -75.2572 254° West 372 428 31,400 1,227 Climbing Boston Center
17:54 44.0914 -75.4175 254° West 372 428 32,800 1,250 Climbing Boston Center
17:55 44.0631 -75.5519 254° West 372 428 33,900 600 Climbing Boston Center
17:56 44.0361 -75.6892 255° West 372 428 34,000 50 Climbing Boston Center
17:57 44.0050 -75.8292 253° West 377 434 34,000  Level Boston Center
17:58 43.9761 -75.9631 253° West 383 441 34,000  Level Boston Center
17:59 43.9528 -76.1058 257° West 388 447 34,000  Level Boston Center
18:00 43.9394 -76.2581 263° West 393 452 34,000  Level Boston Center
18:01 43.9239 -76.4069 262° West 393 452 34,000  Level Boston Center
18:02 43.9103 -76.5589 263° West 398 458 34,000  Level Boston Center
18:04 43.8833 -76.7833 261° West 410 472 34,000  Level Toronto Center
18:05 43.8667 -76.9333 261° West 400 460 34,000  Level Toronto Center
18:06 43.8333 -77.0833 253° West 400 460 34,000  Level Toronto Center
18:07 43.8167 -77.2500 262° West 400 460 34,000  Level Toronto Center
18:08 43.8167 -77.4167 270° West 400 460 34,000 750 Level Toronto Center
18:09 43.8000 -77.5500 260° West 400 460 35,500 1,000 Climbing Toronto Center
18:10 43.7833 -77.7000 261° West 380 437 36,000 250 Climbing Toronto Center
18:11 43.7667 -77.8500 261° West 390 449 36,000  Level Toronto Center
18:12 43.7500 -78.0000 261° West 400 460 36,000  Level Toronto Center
18:13 43.7333 -78.1500 261° West 410 472 36,000  Level Toronto Center
18:14 43.7167 -78.3000 261° West 400 460 36,000  Level Toronto Center
18:15 43.7000 -78.4500 261° West 400 460 36,000  Level Toronto Center
18:16 43.7000 -78.6167 270° West 400 460 36,000  Level Toronto Center
18:17 43.6833 -78.7500 260° West 400 460 36,000  Level Toronto Center
18:18 43.6667 -78.9167 262° West 400 460 36,000  Level Toronto Center
18:19 43.6500 -79.0833 262° West 410 472 36,000  Level Toronto Center
18:20 43.6333 -79.2167 260° West 410 472 36,000  Level Toronto Center
18:21 43.6167 -79.3833 262° West 410 472 36,000  Level Toronto Center
18:22 43.6000 -79.5333 261° West 410 472 36,000  Level Toronto Center
18:23 43.5833 -79.6833 261° West 400 460 36,000  Level Toronto Center
18:24 43.5667 -79.8333 261° West 410 472 36,000  Level Toronto Center
18:25 43.5500 -80.0000 262° West 410 472 36,000  Level Toronto Center
18:26 43.5333 -80.1667 262° West 410 472 36,000  Level Toronto Center
18:27 43.5167 -80.3167 261° West 410 472 36,000  Level Toronto Center
18:28 43.5167 -80.4667 270° West 410 472 36,000  Level Toronto Center
18:29 43.5000 -80.6500 263° West 410 472 36,000  Level Toronto Center
18:30 43.4833 -80.7833 260° West 410 472 36,000  Level Toronto Center
18:31 43.4500 -80.9500 255° West 410 472 36,000  Level Toronto Center
18:32 43.4333 -81.1000 261° West 410 472 36,000  Level Toronto Center
18:33 43.4167 -81.2333 260° West 410 472 36,000  Level Toronto Center
18:34 43.4000 -81.4000 262° West 410 472 36,000  Level Toronto Center
18:35 43.3833 -81.5667 262° West 410 472 36,000  Level Toronto Center
18:36 43.3667 -81.7167 261° West 410 472 36,000  Level Toronto Center
18:37 43.3500 -81.8500 260° West 410 472 36,000  Level Toronto Center
18:38 43.3167 -82.0167 255° West 410 472 36,000  Level Toronto Center
18:39 43.3000 -82.1833 262° West 410 472 36,000  Level Toronto Center
18:40 43.2833 -82.3333 261° West 410 472 36,000  Level Toronto Center
18:41 43.2667 -82.5000 262° West 420 483 36,000  Level Toronto Center
18:42 43.2333 -82.6500 253° West 410 472 36,000  Level Toronto Center
18:43 43.2333 -82.7772 270° West 422 486 36,000  Level Cleveland Center
18:44 43.2053 -82.9300 256° West 422 486 36,000 -350 Level Cleveland Center
18:45 43.1792 -83.0800 257° West 422 486 35,300 -900 Descending Cleveland Center
18:46 43.1508 -83.2356 256° West 422 486 34,200 -1,000 Descending Cleveland Center
18:47 43.1242 -83.3908 257° West 422 486 33,300 -950 Descending Cleveland Center
18:48 43.0994 -83.5433 258° West 417 480 32,300 -650 Descending Cleveland Center
18:49 43.0706 -83.6925 255° West 412 474 32,000 -150 Descending Cleveland Center
18:50 43.0456 -83.8419 257° West 412 474 32,000  Level Cleveland Center
18:51 43.0183 -83.9967 257° West 417 480 32,000  Level Cleveland Center
18:52 42.9908 -84.1483 256° West 417 480 32,000  Level Cleveland Center
18:54 42.9167 -84.4833 253° West 420 483 32,000  Level Toronto Center
18:54 42.9244 -84.5150 289° West 417 480 32,000  Level Chicago Center
18:55 42.8903 -84.6997 256° West 418 481 32,000  Level Chicago Center
18:56 42.8619 -84.8536 256° West 420 483 32,000  Level Chicago Center
18:57 42.8397 -85.0083 259° West 418 481 32,000  Level Chicago Center
18:58 42.8225 -85.1669 262° West 423 487 32,000 -387 Level Chicago Center
18:59 42.8050 -85.3250 261° West 421 484 31,200 -1,403 Descending Chicago Center
19:00 42.7872 -85.4842 261° West 424 488 29,100 -2,256 Descending Chicago Center
19:01 42.7600 -85.6447 257° West 430 495 26,500 -2,976 Descending Chicago Center
19:03 42.7267 -85.8233 256° West 411 473 22,900 -3,097 Descending Chicago Center
19:04 42.7003 -85.9747 257° West 407 468 20,100 -1,403 Descending Chicago Center
19:05 42.6731 -86.1239 256° West 405 466 20,000 -48 Descending Chicago Center
19:06 42.6450 -86.2714 256° West 402 463 20,000 -823 Level Chicago Center
19:07 42.6158 -86.4197 255° West 405 466 18,300 -1,597 Descending Chicago Center
19:08 42.5900 -86.5647 256° West 397 457 16,700 -1,742 Descending Chicago Center
19:09 42.5647 -86.7067 256° West 389 448 14,700 -2,129 Descending Chicago Center
19:10 42.5231 -86.8669 251° West 374 430 12,300 -2,032 Descending Chicago Center
19:11 42.4886 -86.9928 250° West 359 413 10,500 -1,210 Descending Chicago Center
19:12 42.4583 -87.0967 248° West 300 345 9,800 -726 Descending Chicago Center
19:13 42.4181 -87.1772 236° Southwest 264 304 9,000 -387 Descending Chicago Center
19:14 42.3728 -87.2542 231° Southwest 262 302 9,000  Level Chicago Center
19:15 42.3158 -87.3494 231° Southwest 270 311 9,000 -484 Level Chicago Center
19:16 42.2717 -87.4239 231° Southwest 268 308 8,000 -1,258 Descending Chicago Center
19:17 42.2264 -87.4961 230° Southwest 255 293 6,400 -1,597 Descending Chicago Center
19:18 42.1839 -87.5675 231° Southwest 248 285 4,700 -1,161 Descending Chicago Center
19:19 42.1433 -87.6422 234° Southwest 247 284 4,000 -339 Descending Chicago Center
19:20 42.1003 -87.7406 239° Southwest 251 289 4,000  Level Chicago Center

Login

Don't have an account? Register now (free) for customized features, flight alerts, and more!